CAPE
794 970 1303 1241 1045 1005 491 571 382 141 154 270 337 323 219 119 88 326 76 2 229 20 212 40 28 52 6 1 0 0 0 0
147 778 913 1142 869 714 475 606 472 281 630 147 194 213 196 199 310 579 9 304 283 28 223 96 124 173 4 16 28 52 44 15
0 105 1610 719 639 478 34 290 680 442 723 708 335 386 293 465 513 825 519 419 468 249 261 88 444 166 97 102 36 141 240 24
0 0 268 879 165 17 0 0 468 1055 1219 978 556 656 478 633 846 933 1184 1020 1290 1008 977 1048 787 794 561 353 298 430 326 365
0 0 0 670 19 1 0 2 147 1237 1542 1799 995 1218 994 960 1142 1303 996 1276 1585 1251 1369 864 795 700 682 756 1007 1066 936 829
0 0 0 0 17 0 0 0 3 56 1303 1630 1390 1451 1142 857 468 990 1573 1408 1464 1601 1480 1494 1489 1491 1257 1344 1406 1171 1286 508
0 0 0 0 181 321 210 0 0 0 615 279 1319 1626 780 4 138 67 283 1671 1471 1045 1099 1454 1556 1336 1332 1101 956 1271 1171 1076
0 0 0 8 8 911 359 63 158 416 0 0 178 1498 600 6 0 0 14 279 1 0 379 396 695 601 371 666 1366 1305 786 666
0 0 10 118 276 384 1232 1389 1486 641 816 894 1476 1781 2133 1431 50 0 5 571 874 251 0 0 1056 1256 1299 714 607 221 79 10
0 0 85 239 413 1163 768 1538 1684 1780 1430 1332 1445 1287 1684 1691 1789 1898 1669 910 1544 1755 1669 1369 993 116 80 36 104 47 0 0
0 30 79 64 392 920 1024 1974 1885 1675 1701 1562 1371 1906 1464 1466 2087 2058 1884 1677 1657 478 649 241 7 14 1 2 45 51 7 0
0 48 122 98 361 216 130 412 1395 1807 1607 1740 194 869 1080 894 445 328 172 93 50 64 45 27 36 55 15 0 0 10 9 0
0 0 172 128 439 480 176 434 550 1598 1492 2498 1071 1459 898 142 88 34 142 75 85 91 55 62 95 118 87 112 95 97 129 102
6 138 179 213 222 275 711 1026 1008 756 830 1891 1019 500 412 228 431 157 95 212 169 99 50 79 85 93 60 52 104 72 146 157
74 177 180 314 445 1404 1547 797 694 529 498 416 333 206 135 133 68 54 46 10 0 8 0 2 6 10 19 5 0 0 0 0
154 128 236 757 1072 837 562 438 319 193 159 100 22 39 0 0 0 5 1 0 0 0 0 0 0 0 0 0 0 0 0 0
236 434 506 758 595 395 349 225 161 117 66 10 0 0 0 0 0 0 0 0 0 0 0 0 0 0 0 0 0 0 0 0
296 301 364 299 246 226 146 103 56 6 0 0 0 0 0 0 0 0 0 0 0 0 0 0 0 0 0 0 0 0 1 5
196 201 179 107 62 33 12 0 0 0 0 0 0 0 0 0 0 0 0 0 0 0 0 0 0 0 0 0 2 1 2 8
123 76 26 9 0 0 0 0 0 0 0 0 0 0 0 0 0 0 0 0 0 0 0 0 0 0 0 0 0 4 5 8
CIN
-98 -139 -7 -2 -9 -13 -84 -222 -253 -297 -307 -313 -279 -285 -303 -316 -325 -238 -320 -55 -180 -293 -171 -236 -284 -272 -255 -109 -0 -0 -0 -0
-12 -2 -4 -60 -62 -28 -39 -151 -163 -194 -206 -310 -298 -301 -298 -285 -229 -138 -87 -171 -162 -258 -156 -190 -187 -160 -170 -203 -187 -154 -182 -247
-0 -9 -66 -159 -191 -180 -164 -30 -68 -77 -128 -130 -258 -225 -229 -161 -136 -57 -96 -103 -68 -119 -118 -147 -80 -89 -118 -73 -94 -34 -44 -131
-0 -0 -28 -113 -194 -230 -0 -0 -88 -16 -10 -35 -55 -27 -54 -34 -29 -19 -5 -8 -2 -12 -6 -2 -13 -6 -5 -21 -22 -19 -26 -31
-0 -0 -0 -95 -85 -66 -0 -16 -217 -27 -17 -8 -5 -3 -11 -5 -4 -18 -24 -6 -3 -3 -3 -8 -4 -4 -6 -10 -11 -14 -13 -15
-0 -0 -0 -0 -100 -0 -0 -0 -109 -163 -28 -9 -5 -39 -41 -62 -156 -75 -12 -9 -4 -7 -5 -4 -16 -15 -20 -20 -20 -19 -22 -35
-0 -0 -0 -0 -89 -126 -207 -0 -0 -0 -27 -128 -14 -31 -81 -198 -136 -171 -173 -7 -16 -20 -5 -11 -10 -17 -30 -26 -20 -24 -24 -18
-0 -0 -0 -63 -33 -75 -106 -174 -141 -155 -0 -0 -7 -32 -101 -182 -0 -0 -69 -22 -26 -0 -49 -55 -9 -18 -17 -4 -9 -3 -25 -27
-0 -0 -40 -119 -76 -37 -16 -8 -20 -53 -42 -16 -16 -40 -19 -44 -197 -0 -12 -2 -14 -151 -0 -0 -27 -18 -7 -19 -33 -61 -90 -36
-0 -0 -26 -87 -53 -30 -48 -46 -14 -12 -2 -11 -9 -11 -6 -5 -0 -4 -3 -10 -6 -21 -26 -6 -52 -109 -92 -119 -93 -130 -0 -0
-0 -11 -27 -26 -57 -40 -41 -39 -51 -40 -27 -37 -15 -12 -18 -11 -5 -6 -20 -8 -4 -82 -59 -73 -139 -124 -37 -47 -106 -100 -107 -0
-0 -7 -19 -28 -53 -70 -74 -81 -40 -51 -49 -33 -46 -37 -8 -25 -79 -76 -121 -127 -144 -155 -159 -192 -171 -134 -119 -0 -0 -71 -34 -0
-0 -0 -20 -38 -42 -45 -60 -88 -83 -44 -43 -25 -46 -41 -25 -90 -135 -188 -175 -176 -158 -168 -181 -166 -141 -136 -125 -104 -110 -80 -51 -38
-9 -7 -25 -19 -41 -35 -47 -57 -110 -116 -131 -65 -96 -108 -99 -123 -140 -180 -180 -125 -137 -161 -183 -173 -159 -142 -139 -133 -95 -91 -56 -39
-8 -40 -31 -55 -65 -27 -80 -160 -159 -183 -211 -215 -254 -227 -208 -226 -237 -236 -259 -194 -0 -78 -0 -110 -93 -259 -186 -95 -0 -0 -0 -0
-46 -37 -40 -47 -54 -98 -140 -208 -290 -391 -410 -378 -401 -358 -0 -0 -0 -428 -45 -0 -0 -0 -0 -0 -0 -0 -0 -0 -0 -0 -0 -0
-58 -86 -58 -19 -92 -166 -205 -296 -331 -396 -449 -338 -66 -0 -0 -0 -0 -0 -0 -0 -0 -0 -0 -0 -0 -0 -0 -0 -0 -0 -0 -0
-74 -97 -86 -126 -152 -191 -289 -338 -375 -279 -0 -0 -0 -0 -0 -0 -0 -0 -0 -0 -0 -0 -0 -0 -0 -0 -0 -0 -0 -0 -0 -1
-50 -90 -149 -206 -257 -293 -326 -0 -0 -0 -0 -0 -0 -0 -0 -0 -0 -0 -0 -0 -0 -0 -0 -0 -0 -0 -0 -0 -1 -2 -5 -8
-23 -94 -156 -185 -13 -0 -0 -0 -0 -0 -0 -0 -0 -0 -0 -0 -0 -0 -0 -0 -0 -0 -0 -0 -0 -0 -0 -0 -0 -3 -3 -3
Wind_Speed
10 8 6 10 11 11 12 12 13 13 10 8 8 7 6 6 5 3 3 2 3 2 3 3 4 5 8 7 8 9 8 8
18 18 10 19 20 13 15 18 16 16 12 9 9 8 8 8 7 5 5 7 5 3 3 3 3 5 6 8 8 8 8 10
26 25 20 23 20 20 12 25 18 16 11 9 9 9 9 9 8 8 7 8 7 7 7 6 5 5 5 6 8 11 9 12
28 31 23 26 25 27 36 34 36 16 17 9 9 9 8 9 9 9 10 9 8 7 8 11 12 12 10 8 9 11 12 13
27 30 28 22 24 26 28 30 7 22 24 20 13 11 7 8 9 9 9 13 12 11 10 9 11 12 14 16 17 20 23 25
32 33 15 17 18 13 15 22 16 10 20 22 15 16 14 15 15 13 8 12 15 15 15 14 13 12 14 15 17 20 25 24
31 31 15 16 13 11 8 8 8 17 21 23 21 22 17 13 17 15 27 17 10 17 17 17 15 15 15 16 19 21 28 31
29 26 12 10 12 5 5 8 11 8 10 14 23 14 12 13 21 25 26 31 13 18 22 26 26 25 13 19 17 22 26 31
29 22 11 8 8 8 4 2 3 5 9 9 10 13 15 13 10 8 20 32 11 3 10 11 11 17 19 16 18 21 27 32
26 20 15 6 5 7 7 5 4 6 9 11 15 14 18 15 11 9 8 9 9 12 13 15 16 18 20 21 22 27 28 30
24 17 15 15 8 6 8 9 10 12 15 15 17 19 25 22 20 17 17 15 13 14 15 17 19 21 23 24 25 23 28 27
15 15 16 15 14 12 13 12 9 13 11 16 19 20 23 24 21 18 17 15 16 17 17 19 19 21 23 25 28 28 29 34
9 14 14 12 8 8 14 16 20 17 16 19 21 19 18 17 18 17 17 17 17 18 18 21 22 24 27 29 31 32 34 36
2 3 10 5 1 6 16 12 19 18 16 13 12 13 11 11 14 15 18 18 18 20 21 22 25 29 31 32 34 36 37 37
4 9 4 1 4 7 10 9 9 12 10 11 11 10 12 13 18 20 22 23 23 24 27 29 31 33 35 37 38 38 40 41
1 3 3 1 4 6 8 10 7 10 10 13 14 17 14 17 19 21 23 25 27 30 31 33 35 37 38 40 40 40 41 42
2 2 1 3 4 4 5 6 9 9 11 13 15 16 18 20 21 22 25 26 29 30 35 37 37 39 39 40 42 43 42 42
5 2 3 3 5 6 7 9 11 11 11 12 15 18 19 20 23 24 26 29 30 32 35 37 39 40 40 41 41 40 42 42
6 4 3 4 6 9 9 9 10 13 15 17 19 21 23 25 26 27 29 32 35 36 36 37 40 42 41 41 41 43 43 42
3 3 3 4 5 6 10 12 13 14 16 18 21 23 25 27 28 29 32 33 34 36 38 40 41 41 41 42 43 40 40 39
Wind_Direction
266 205 216 255 235 227 222 217 221 220 215 214 229 232 238 246 247 252 251 246 234 238 277 281 294 295 306 307 315 319 319 325
282 288 270 288 276 228 218 215 210 218 208 215 221 227 234 243 245 239 250 276 268 261 271 268 288 302 293 301 303 307 311 313
284 287 299 283 284 265 286 267 220 217 212 228 216 217 219 239 237 235 252 263 267 276 284 285 270 304 293 306 306 309 303 308
278 281 289 283 281 266 271 285 258 236 263 249 246 243 235 245 234 239 244 258 269 275 286 295 299 306 310 304 309 313 307 308
276 280 289 289 280 274 274 260 14 264 263 275 268 269 248 253 261 228 254 269 288 283 289 293 299 300 302 306 309 310 308 309
274 276 292 292 286 271 269 282 276 175 262 279 273 281 274 286 293 300 245 274 280 283 290 297 306 308 312 314 312 309 308 313
269 273 282 294 286 283 266 248 220 259 288 292 272 263 280 305 292 293 290 275 285 300 287 302 297 300 297 303 307 310 309 309
267 265 267 282 301 256 271 260 267 268 291 285 268 289 300 310 298 287 275 287 303 324 319 317 303 299 285 304 316 318 316 314
259 250 250 262 275 278 308 319 258 261 285 289 294 284 296 300 312 335 294 280 22 346 320 316 318 325 334 329 328 323 317 315
257 237 234 237 267 279 284 301 289 294 301 308 313 301 296 304 305 323 322 322 330 322 327 326 328 329 327 328 321 313 314 316
255 226 221 238 257 277 290 289 293 300 290 304 305 314 306 303 307 310 316 319 319 327 329 324 325 319 316 322 323 322 316 320
237 229 225 235 255 258 279 284 287 297 304 295 300 297 295 300 308 309 320 326 321 325 320 318 321 322 322 322 321 320 319 314
202 232 223 241 257 248 279 287 289 293 303 305 293 293 298 299 302 307 321 320 326 323 325 320 323 322 319 319 317 317 314 313
259 218 164 179 281 307 293 293 294 294 310 317 324 319 313 317 319 318 312 315 318 320 322 321 319 317 317 317 316 313 312 311
303 139 139 286 319 341 327 320 315 304 308 319 332 341 325 316 309 310 310 313 318 321 317 314 314 315 314 313 313 312 310 309
296 58 110 34 335 340 334 317 337 324 311 307 314 318 320 315 316 313 313 313 315 315 316 314 312 312 312 312 312 311 311 309
64 306 0 72 49 34 2 6 331 330 322 315 311 313 315 315 315 318 315 314 313 315 311 310 312 312 312 312 311 310 310 310
88 74 64 39 11 354 338 327 326 321 326 321 318 317 316 316 316 314 313 312 312 312 313 312 312 312 312 311 311 311 311 311
100 79 12 340 328 324 327 329 326 319 315 313 311 310 311 311 312 312 311 310 311 312 313 313 313 312 311 311 310 310 309 309
94 53 1 339 337 336 326 325 324 326 323 318 313 313 313 312 312 313 312 312 314 314 314 313 313 312 312 311 311 311 311 310